Location: Pian di Sc�
(43.6333°N, 11.5500°E)
Time: 13:45:55
(UTC+00:00)

Cosmos 2058 Rocket - Pass Details

Date: 07 August 2020
Orbit: 610 x 639 km, 82.5° (Epoch: 24 September)

Event Time Altitude Azimuth Distance (km) Brightness Sun altitude
Rises 03:21:17 0° 171° (S) 2,926 6.3 -8.6°
Reaches altitude 10° 03:23:35 10° 165° (SSE) 2,019 5.5 -8.2°
Maximum altitude 03:27:51 46° 93° (E) 861 4.3 -7.6°
Drops below altitude 10° 03:32:08 10° 21° (NNE) 2,022 6.5 -6.9°
Sets 03:34:26 0° 15° (NNE) 2,930 7.3 -6.5°
